sat.trackr.live / text

‹ back to catalog

IRNSS-1C

NORAD 40269 · 2014-061A

PAYLOAD ACTIVE UNKNOWN

§ Identity

Operator
Country
IND
Launch date
2014-10-15
Launch site
SRILR
Launch vehicle
Mass (kg)
RCS (m²)
0.00

Purposes: comms, nav

External: N2YO · Heavens-Above · Gunter

§ Orbital elements

Epoch: 2026-05-24T21:17:31.856064Z

Period
1,436.08 min
Inclination
6.4588°
Eccentricity
0.0022498
Mean motion
1.00273023 rev/d
Perigee alt
35,691.4 km
Apogee alt
35,881.1 km
Semi-major
42,164.4 km
B*
0.0000e+0
RAAN
89.3694°
Arg perigee
359.8682°
Mean anomaly
195.6488°
Rev number
4,245

§ Raw data

IRNSS-1C1 40269U 14061A   26144.88717426 -.00000163  00000+0  00000+0 0  99922 40269   6.4588  89.3694 0022498 359.8682 195.6488  1.00273023 42453

JSON: /api/v1/satellites/40269 · /tle

For live sub-satellite position, see the globe view (requires WebGL).

§ Visibility from observer

Set your observer location to see the next 7 days of passes ≥ 10°. The values pass through the URL so the page stays shareable.

No JS? Fill the form by hand. The geolocation button needs JavaScript.